[[{"header":{"parameterUnit":"m.s-1","parameterCategory":2,"la1":30.2991,"la2":30.254,"lo1":-89.0895,"lo2":-89.0444,"dy":0.0017,"dx":0.0017,"nx":28,"ny":28,"refTime":"2024-04-05T03:00:00:Z","depth":"0","parameterNumber":2,"parameterNumberName":"U-component_of_CURRENTS"},"data":[0,0,0,0,0,0,0,0,0,0,0,0,0,0,0,0,0,0,0,0,0,0,0,0,0,0,0,0,0,0,0,0,0,0,0,0,0,0,0,0,0,0,0,0,0,0,0,0,0,0,0,0,0,0,0,0,0,0,-0.2506,-0.2506,0,-0.2532,-0.2532,-0.2532,-0.2485,-0.2484,-0.2483,-0.2482,-0.2434,-0.2433,-0.2433,0,0,0,0,0,0,0,0,0,0,0,0,0,-0.2391,-0.2393,-0.2506,-0.2506,-0.2507,-0.2532,-0.2532,-0.2532,-0.2485,-0.2484,-0.2483,-0.2482,-0.2434,-0.2433,-0.2433,0,0,0,0,0,0,0,0,0,0,0,0,0,-0.2426,-0.2394,-0.2505,-0.2491,-0.2491,-0.2532,-0.2532,-0.2532,-0.2486,-0.2484,-0.2482,-0.2481,-0.2434,-0.2433,-0.2433,-0.2462,0,0,-0.2432,-0.2431,0,0,0,0,0,0,0,0,-0.2425,-0.243,-0.2492,-0.2492,-0.2492,-0.2509,-0.2474,-0.2507,-0.2486,-0.2481,-0.2482,-0.248,-0.2457,-0.2454,-0.2456,-0.246,-0.2457,-0.2432,-0.2431,-0.2431,-0.2431,0,0,0,0,0,0,0,-0.2422,-0.2429,-0.251,-0.2494,-0.2493,-0.2476,-0.2479,-0.248,-0.2472,-0.2482,-0.248,-0.2492,-0.2455,-0.2456,-0.2454,-0.2457,-0.2432,-0.2431,-0.2431,-0.2431,-0.2473,-0.2474,0,0,0,0,0,0,-0.2434,-0.2427,-0.251,-0.2512,-0.246,-0.248,-0.2483,-0.25,-0.2473,-0.247,-0.2494,-0.249,-0.2458,-0.2455,-0.2452,-0.2472,-0.2431,-0.2431,-0.243,-0.2471,-0.2473,-0.2475,0,0,0,0,0,0,-0.2431,-0.2441,-0.2509,-0.2473,-0.2482,-0.2484,-0.2504,-0.2502,-0.2499,-0.2484,-0.2478,-0.2493,-0.2457,-0.2453,-0.2454,-0.247,-0.243,-0.243,-0.247,-0.2472,-0.2474,-0.2519,0,0,0,0,0,0,-0.2428,-0.244,-0.2451,-0.2475,-0.2484,-0.2537,-0.2506,-0.2504,-0.2512,-0.2507,-0.2482,-0.2476,-0.2455,-0.2455,-0.2454,-0.2468,-0.243,-0.2468,-0.2471,-0.2473,-0.2516,-0.2523,-0.2528,0,0,0,0,0,-0.2424,-0.2445,-0.2452,-0.2462,-0.2502,-0.2539,-0.2542,-0.2533,-0.2514,-0.2522,-0.2502,-0.2477,-0.2471,-0.2456,-0.2454,-0.2469,-0.2467,-0.247,-0.2473,-0.2513,-0.2521,-0.2528,0,0,0,0,0,0,-0.2397,-0.2444,-0.2451,-0.2485,-0.2514,-0.2533,-0.2539,-0.254,-0.2532,-0.2519,-0.2494,-0.2488,-0.2496,-0.2483,-0.2468,-0.2491,-0.2465,-0.2468,-0.2497,-0.2504,-0.251,-0.2522,-0.2429,0,0,0,0,0,-0.2403,-0.243,-0.2472,-0.2498,-0.2513,-0.2527,-0.2539,-0.2541,-0.2544,-0.2538,-0.2524,-0.2511,-0.2511,-0.2506,-0.2503,-0.2518,-0.2495,-0.2528,-0.2534,-0.2539,-0.2549,-0.2548,-0.2555,-0.2485,-0.2485,-0.2485,0,0,-0.24,-0.243,-0.2444,-0.2494,-0.2509,-0.2543,-0.2528,-0.2552,-0.2574,-0.2536,-0.2545,-0.2532,-0.2521,-0.2534,-0.2536,-0.2521,-0.2541,-0.2543,-0.2547,-0.2555,-0.2552,-0.2559,-0.2564,-0.2487,-0.2487,-0.2486,0,0,-0.2414,-0.2435,-0.2464,-0.2494,-0.2533,-0.2549,-0.2561,-0.2586,-0.2586,-0.2606,-0.2584,-0.2585,-0.258,-0.258,-0.2578,-0.2622,-0.2575,-0.2617,-0.2654,-0.2653,-0.2658,-0.2663,-0.2612,-0.2611,-0.2618,-0.2618,-0.2618,0,-0.2402,-0.2455,-0.2477,-0.2516,-0.2543,-0.2556,-0.2594,-0.2608,-0.2628,-0.2639,-0.2611,-0.2623,-0.2605,-0.2635,-0.2642,-0.2635,-0.2608,-0.2623,-0.266,-0.2664,-0.2668,-0.2615,-0.2614,-0.2621,-0.2621,-0.262,-0.262,0,-0.2446,-0.2486,-0.2503,-0.2558,-0.259,-0.2623,-0.2658,-0.2677,-0.2675,-0.2689,-0.2711,-0.2693,-0.2697,-0.2696,-0.2676,-0.2706,-0.2667,-0.2667,-0.2637,-0.2677,-0.2618,-0.2617,-0.2625,-0.2624,-0.2623,-0.2622,0,0,-0.2393,-0.2515,-0.2512,-0.2558,-0.2615,-0.2648,-0.269,-0.274,-0.2767,-0.2771,-0.2798,-0.28,-0.2784,-0.2783,-0.2764,-0.2763,-0.2749,-0.2725,-0.2724,-0.2667,-0.2706,-0.2628,-0.2618,-0.2753,-0.2754,-0.2754,-0.2641,0,-0.2408,-0.2507,-0.2555,-0.2628,-0.2677,-0.2714,-0.2759,-0.2802,-0.2817,-0.2842,-0.2836,-0.2848,-0.282,-0.2814,-0.2813,-0.2764,-0.2752,-0.2777,-0.2683,-0.2679,-0.26,-0.2617,-0.2547,-0.2437,-0.2639,-0.2639,-0.2639,0,-0.24,-0.2482,-0.2573,-0.2686,-0.2707,-0.2744,-0.2813,-0.2861,-0.2903,-0.2914,-0.2926,-0.2913,-0.2906,-0.2878,-0.2822,-0.2834,-0.2778,-0.2741,-0.2735,-0.2651,-0.26,-0.2438,-0.2426,-0.2409,-0.2635,-0.2636,-0.2636,0,-0.2334,-0.2467,-0.2549,-0.2586,-0.272,-0.275,-0.2804,-0.2866,-0.2897,-0.2946,-0.2941,-0.296,-0.2914,-0.2893,-0.2787,-0.2809,-0.2702,-0.2723,-0.2603,-0.2594,-0.2511,-0.2494,-0.247,-0.2701,-0.2701,-0.2701,-0.2701,0,-0.2304,-0.2354,-0.2527,-0.2563,-0.2643,-0.2736,-0.279,-0.2847,-0.2905,-0.2898,-0.2957,-0.2917,-0.2914,-0.2841,-0.2792,-0.2659,-0.2698,-0.2607,-0.2571,-0.252,-0.2507,-0.247,-0.2488,-0.2697,-0.2698,-0.2699,-0.2699,0,-0.2178,-0.2309,-0.2391,-0.2554,-0.2606,-0.2641,-0.2754,-0.2764,-0.2858,-0.2837,-0.2841,-0.2856,-0.2763,-0.2735,-0.2657,-0.2617,-0.2492,-0.2488,-0.2399,-0.2357,-0.2267,-0.229,-0.2197,-0.214,-0.2365,-0.2362,-0.236,0,-0.2132,-0.217,-0.234,-0.2369,-0.2426,-0.2517,-0.2542,-0.2696,-0.2686,-0.2754,-0.269,-0.2664,-0.2585,-0.247,-0.2426,-0.235,-0.2343,-0.2229,-0.2287,-0.2248,-0.2249,-0.2252,-0.2213,-0.2173,-0.217,-0.2167,-0.2165,0,-0.2011,-0.2057,-0.2119,-0.2198,-0.2238,-0.2304,-0.2351,-0.2368,-0.2484,-0.2495,-0.2453,-0.2438,-0.2364,-0.2273,-0.2209,-0.2155,-0.2189,-0.2169,-0.2168,-0.2132,-0.2096,-0.2027,-0.2231,-0.214,-0.2143,-0.2144,-0.2146,-0.2147,-0.1877,-0.1876,-0.1952,-0.1998,-0.2039,-0.2045,-0.2043,-0.209,-0.2116,-0.212,-0.2179,-0.2154,-0.2156,-0.2084,-0.2031,-0.1951,-0.1994,-0.1916,-0.195,-0.1958,-0.1908,-0.2034,-0.189,-0.1891,-0.1892,-0.1893,-0.1893,0,-0.1732,-0.1741,-0.1752,-0.1808,-0.176,-0.1859,-0.187,-0.1844,-0.1816,-0.1876,-0.188,-0.1923,-0.1868,-0.1889,-0.1852,-0.1779,-0.1754,-0.1717,-0.1735,-0.1708,-0.1843,-0.1842,-0.1634,-0.1634,-0.1634,-0.1634,-0.1634,-0.1634,-0.1661,-0.162,-0.1634,-0.1541,-0.1547,-0.1479,-0.1461,-0.1453,-0.149,-0.1512,-0.1586,-0.1702,-0.1735,-0.1865,-0.178,-0.1695,-0.1659,-0.1578,-0.1592,-0.1734,-0.1757,-0.1778,-0.1783,-0.1566,-0.1566,-0.1407,-0.1406,-0.1406]},{"header":{"parameterUnit":"m.s-1","parameterCategory":2,"la1":30.2991,"la2":30.254,"lo1":-89.0895,"lo2":-89.0444,"dy":0.0017,"dx":0.0017,"nx":28,"ny":28,"refTime":"2024-04-05T03:00:00:Z","depth":"0","parameterNumber":3,"parameterNumberName":"V-component_of_CURRENTS"},"data":[0,0,0,0,0,0,0,0,0,0,0,0,0,0,0,0,0,0,0,0,0,0,0,0,0,0,0,0,0,0,0,0,0,0,0,0,0,0,0,0,0,0,0,0,0,0,0,0,0,0,0,0,0,0,0,0,0,0,-0.0269,-0.0269,0,-0.0224,-0.0223,-0.0222,-0.0189,-0.0189,-0.0189,-0.019,-0.0073,-0.007,-0.0067,0,0,0,0,0,0,0,0,0,0,0,0,0,-0.0241,-0.0242,-0.0269,-0.0269,-0.0269,-0.0224,-0.0223,-0.0222,-0.0189,-0.0189,-0.019,-0.019,-0.0074,-0.007,-0.0066,0,0,0,0,0,0,0,0,0,0,0,0,0,-0.0227,-0.0242,-0.0269,-0.025,-0.0248,-0.0224,-0.0223,-0.0222,-0.0189,-0.0189,-0.019,-0.019,-0.0075,-0.0071,-0.0066,-0.0034,0,0,-0.0051,-0.0049,0,0,0,0,0,0,0,0,-0.0228,-0.0227,-0.0253,-0.0251,-0.0249,-0.0216,-0.017,-0.0157,-0.0189,-0.0208,-0.019,-0.019,-0.0117,-0.0108,-0.0095,-0.0029,-0.0024,-0.0051,-0.0048,-0.0046,-0.0045,0,0,0,0,0,0,0,-0.0229,-0.0229,-0.0247,-0.0253,-0.0251,-0.0214,-0.0213,-0.0167,-0.0158,-0.0206,-0.0204,-0.0205,-0.0114,-0.01,-0.0092,-0.0022,-0.0051,-0.0047,-0.0044,-0.0042,0.0088,0.0089,0,0,0,0,0,0,-0.0247,-0.023,-0.0249,-0.0246,-0.0243,-0.0215,-0.0213,-0.0223,-0.016,-0.0152,-0.0205,-0.0204,-0.0108,-0.0098,-0.0088,-0.0048,-0.0046,-0.0042,-0.0039,0.0087,0.0088,0.0089,0,0,0,0,0,0,-0.0246,-0.0249,-0.0251,-0.0239,-0.0238,-0.0217,-0.0227,-0.0222,-0.021,-0.0161,-0.0151,-0.0199,-0.0108,-0.0094,-0.0049,-0.0043,-0.0039,-0.0035,0.0087,0.0088,0.0088,0.0033,0,0,0,0,0,0,-0.0246,-0.025,-0.0261,-0.0241,-0.0239,-0.0243,-0.0227,-0.0222,-0.0212,-0.021,-0.0152,-0.0141,-0.0107,-0.0057,-0.0045,-0.0036,-0.0031,0.0086,0.0087,0.0088,0.0034,0.0032,0.003,0,0,0,0,0,-0.0245,-0.0263,-0.0263,-0.0265,-0.0257,-0.0243,-0.0238,-0.022,-0.0212,-0.0208,-0.0168,-0.0143,-0.0041,-0.0053,-0.0038,-0.0029,0.0085,0.0087,0.0088,0.0035,0.0033,0.0031,0,0,0,0,0,0,-0.0257,-0.0261,-0.026,-0.0279,-0.0266,-0.0239,-0.024,-0.0223,-0.0188,-0.0185,-0.0135,-0.0121,-0.0079,-0.0044,-0.0058,0.0014,0.0027,0.0031,-0.0018,-0.002,-0.0022,-0.004,-0.0027,0,0,0,0,0,-0.0268,-0.0285,-0.0273,-0.029,-0.0287,-0.0262,-0.0255,-0.024,-0.021,-0.0196,-0.0155,-0.0107,-0.0061,-0.0035,0.0009,0.0049,0.0082,0.0066,0.0064,0.0062,0.0058,0.011,0.0112,0.0093,0.0093,0.0093,0,0,-0.0281,-0.0284,-0.0295,-0.0294,-0.0284,-0.0285,-0.0257,-0.025,-0.024,-0.0186,-0.0158,-0.0113,-0.0052,-0.0011,0.0012,0.0019,0.0086,0.0064,0.0061,0.0058,0.0112,0.0113,0.0115,0.0094,0.0094,0.0094,0,0,-0.0311,-0.0316,-0.0337,-0.0329,-0.0319,-0.0302,-0.0303,-0.0274,-0.0251,-0.0218,-0.0175,-0.0129,-0.0063,-0.0018,0.0013,0.003,0.0071,0.0047,0.0024,0.0075,0.0076,0.0078,0.012,0.0126,0.0047,0.0047,0.0047,0,-0.0327,-0.0354,-0.0338,-0.035,-0.0351,-0.0315,-0.0328,-0.0296,-0.0254,-0.023,-0.0217,-0.0113,-0.0066,-0.0007,-0.0004,0.0025,0.0056,0.0024,0.007,0.0073,0.0076,0.0118,0.0125,0.0044,0.0045,0.0045,0.0045,0,-0.0371,-0.0388,-0.0398,-0.0408,-0.0399,-0.0405,-0.0367,-0.0347,-0.0315,-0.0276,-0.0212,-0.0143,-0.0082,-0.0056,-0.0026,0.0023,0.0039,0.0058,0.0069,0.0074,0.0119,0.0127,0.0041,0.0042,0.0043,0.0043,0,0,-0.0423,-0.043,-0.0435,-0.0451,-0.0431,-0.0434,-0.0411,-0.0378,-0.0363,-0.0297,-0.026,-0.0178,-0.0134,-0.0095,-0.004,0.0005,0.005,0.0032,0.0036,0.006,0.0155,0.0169,0.018,0.0073,0.0075,0.0076,0.0177,0,-0.0465,-0.051,-0.0489,-0.0523,-0.0547,-0.0501,-0.0484,-0.0442,-0.0392,-0.0342,-0.0246,-0.0187,-0.0147,-0.0115,-0.0064,0.0029,0.007,0.002,0.0159,0.0163,0.0165,0.019,0.0213,0.0306,0.0186,0.0187,0.0188,0,-0.0519,-0.0545,-0.0589,-0.0594,-0.0597,-0.0597,-0.0573,-0.0547,-0.0455,-0.0406,-0.0326,-0.0249,-0.0151,-0.0126,0.0023,-0.0011,0.0059,0.0125,0.0131,0.0168,0.0193,0.0286,0.0326,0.0455,0.0202,0.0201,0.02,0,-0.059,-0.0613,-0.0655,-0.066,-0.0654,-0.0652,-0.0634,-0.057,-0.0538,-0.0438,-0.0396,-0.0276,-0.02,-0.0095,0.0041,0.0035,0.0198,0.021,0.0289,0.029,0.035,0.0355,0.0522,0.0298,0.0298,0.0298,0.0297,0,-0.0658,-0.0689,-0.0693,-0.0723,-0.0756,-0.0717,-0.0724,-0.0678,-0.0597,-0.0555,-0.0431,-0.0367,-0.019,-0.0071,0.0036,0.0194,0.0198,0.029,0.0322,0.0332,0.0334,0.048,0.0531,0.0302,0.0301,0.03,0.0299,0,-0.0732,-0.0735,-0.0789,-0.0797,-0.0796,-0.0822,-0.0788,-0.0779,-0.0689,-0.0627,-0.0589,-0.0416,-0.0255,-0.0089,0.0098,0.0193,0.0413,0.038,0.0375,0.0404,0.0588,0.0634,0.0813,0.0872,0.0491,0.0492,0.0493,0,-0.0773,-0.0811,-0.0856,-0.0885,-0.0888,-0.0908,-0.0909,-0.0836,-0.0802,-0.0661,-0.0618,-0.0447,-0.0322,-0.0032,0.0175,0.0379,0.0466,0.0508,0.0499,0.061,0.0685,0.0708,0.0745,0.0562,0.0563,0.0565,0.0565,0,-0.0847,-0.0862,-0.0905,-0.0969,-0.0991,-0.1017,-0.0995,-0.0979,-0.0874,-0.0808,-0.0677,-0.0569,-0.0267,0.0,0.0275,0.0392,0.0601,0.0535,0.0669,0.0769,0.079,0.0856,0.0475,0.0575,0.0574,0.0574,0.0573,0.0573,-0.0886,-0.0939,-0.0987,-0.1042,-0.1073,-0.1087,-0.1096,-0.1048,-0.0997,-0.0863,-0.0746,-0.0563,-0.0142,0.0263,0.0411,0.0735,0.0692,0.0821,0.0871,0.0886,0.0934,0.0561,0.068,0.068,0.0679,0.0679,0.0679,0,-0.0932,-0.0981,-0.1045,-0.1106,-0.1145,-0.114,-0.112,-0.11,-0.1044,-0.0904,-0.0776,-0.0339,0.0061,0.0441,0.0918,0.1076,0.1103,0.1146,0.1204,0.1228,0.0929,0.0922,0.1078,0.1078,0.1078,0.1077,0.1077,0.1077,-0.0955,-0.103,-0.1067,-0.114,-0.1174,-0.1194,-0.1182,-0.114,-0.1034,-0.0814,-0.0578,-0.0376,0.0196,0.099,0.1411,0.1428,0.1558,0.1528,0.1596,0.1413,0.1386,0.1361,0.137,0.1616,0.1617,0.1876,0.1879,0.1881]}],[{"header":{"parameterUnit":"m.s-1","parameterCategory":2,"la1":30.2991,"la2":30.254,"lo1":-89.0895,"lo2":-89.0444,"dy":0.0017,"dx":0.0017,"nx":28,"ny":28,"refTime":"2024-04-05T03:00:00:Z","depth":"2","parameterNumber":2,"parameterNumberName":"U-component_of_CURRENTS"},"data":[0,0,0,0,0,0,0,0,0,0,0,0,0,0,0,0,0,0,0,0,0,0,0,0,0,0,0,0,0,0,0,0,0,0,0,0,0,0,0,0,0,0,0,0,0,0,0,0,0,0,0,0,0,0,0,0,0,0,-0.2301,-0.2303,0,-0.2389,-0.2389,-0.2389,-0.2356,-0.2355,-0.2354,-0.2353,-0.2308,-0.2308,-0.2307,0,0,0,0,0,0,0,0,0,0,0,0,0,-0.2111,-0.2113,-0.2301,-0.2303,-0.2305,-0.2389,-0.2389,-0.2389,-0.2357,-0.2355,-0.2354,-0.2353,-0.2308,-0.2308,-0.2307,0,0,0,0,0,0,0,0,0,0,0,0,0,-0.2185,-0.2114,-0.2301,-0.2307,-0.2309,-0.2389,-0.2389,-0.2389,-0.2357,-0.2355,-0.2354,-0.2352,-0.2308,-0.2308,-0.2307,-0.2337,0,0,-0.2306,-0.2306,0,0,0,0,0,0,0,0,-0.2181,-0.2191,-0.2304,-0.2306,-0.2309,-0.2369,-0.2306,-0.2369,-0.2357,-0.2328,-0.2353,-0.2352,-0.2324,-0.2322,-0.2329,-0.2334,-0.2333,-0.2306,-0.2306,-0.2306,-0.2306,0,0,0,0,0,0,0,-0.2176,-0.2187,-0.2325,-0.2306,-0.231,-0.2308,-0.2315,-0.2318,-0.2323,-0.233,-0.2331,-0.2357,-0.2323,-0.233,-0.2328,-0.2332,-0.2306,-0.2306,-0.2306,-0.2305,-0.235,-0.2351,0,0,0,0,0,0,-0.2188,-0.2183,-0.2323,-0.2329,-0.2252,-0.2313,-0.2321,-0.2343,-0.2326,-0.2326,-0.2359,-0.2356,-0.2331,-0.2328,-0.2326,-0.2348,-0.2306,-0.2305,-0.2305,-0.2349,-0.235,-0.2352,0,0,0,0,0,0,-0.2184,-0.22,-0.2319,-0.2266,-0.2282,-0.2319,-0.2343,-0.2346,-0.2352,-0.2351,-0.2346,-0.2364,-0.233,-0.2326,-0.2329,-0.2346,-0.2305,-0.2305,-0.2347,-0.2349,-0.2351,-0.2399,0,0,0,0,0,0,-0.2178,-0.2197,-0.2209,-0.2267,-0.2286,-0.2371,-0.2346,-0.2349,-0.2377,-0.2373,-0.2354,-0.2348,-0.2328,-0.2329,-0.2328,-0.2345,-0.2305,-0.2345,-0.2348,-0.235,-0.2396,-0.2403,-0.2409,0,0,0,0,0,-0.217,-0.2194,-0.2208,-0.2226,-0.2303,-0.2374,-0.2382,-0.2395,-0.2378,-0.2391,-0.2373,-0.2349,-0.2345,-0.233,-0.2329,-0.2345,-0.2344,-0.2347,-0.235,-0.2393,-0.2401,-0.2409,0,0,0,0,0,0,-0.2115,-0.2196,-0.2212,-0.2258,-0.2317,-0.2372,-0.2391,-0.2403,-0.2402,-0.2389,-0.2366,-0.236,-0.237,-0.2357,-0.2342,-0.2368,-0.2341,-0.2344,-0.2375,-0.2382,-0.2388,-0.24,-0.2304,0,0,0,0,0,-0.2115,-0.2153,-0.2231,-0.227,-0.2299,-0.2345,-0.2372,-0.239,-0.2409,-0.2406,-0.2396,-0.2385,-0.2386,-0.2381,-0.238,-0.2395,-0.2368,-0.2407,-0.2413,-0.2419,-0.2428,-0.2425,-0.2431,-0.2362,-0.2362,-0.2362,0,0,-0.2111,-0.2158,-0.2183,-0.2261,-0.2301,-0.2357,-0.2353,-0.2405,-0.2439,-0.2402,-0.2419,-0.2407,-0.2396,-0.2411,-0.2414,-0.2398,-0.2416,-0.2423,-0.2427,-0.2434,-0.2429,-0.2435,-0.2441,-0.2364,-0.2364,-0.2364,0,0,-0.2128,-0.216,-0.2201,-0.2255,-0.2332,-0.2364,-0.2383,-0.2441,-0.2447,-0.2477,-0.2457,-0.246,-0.2458,-0.2459,-0.2457,-0.2503,-0.2452,-0.2499,-0.2537,-0.2533,-0.2538,-0.2543,-0.2479,-0.2477,-0.25,-0.25,-0.25,0,-0.2112,-0.218,-0.2224,-0.2281,-0.2329,-0.2369,-0.2426,-0.2452,-0.2499,-0.2511,-0.2485,-0.2502,-0.2485,-0.2515,-0.2524,-0.2517,-0.2484,-0.2505,-0.254,-0.2544,-0.2548,-0.2481,-0.2479,-0.2503,-0.2502,-0.2502,-0.2502,0,-0.217,-0.2225,-0.2255,-0.2337,-0.2389,-0.2445,-0.2505,-0.2535,-0.254,-0.2564,-0.2588,-0.2573,-0.2579,-0.2579,-0.2559,-0.2589,-0.2544,-0.2548,-0.2517,-0.2558,-0.2484,-0.2481,-0.2506,-0.2506,-0.2505,-0.2504,0,0,-0.2111,-0.2265,-0.2268,-0.2322,-0.2422,-0.2468,-0.253,-0.2597,-0.2627,-0.2648,-0.2673,-0.2682,-0.2667,-0.2666,-0.2648,-0.2647,-0.2625,-0.2607,-0.2606,-0.2536,-0.2568,-0.2496,-0.2484,-0.2633,-0.2634,-0.2635,-0.2491,0,-0.2133,-0.2246,-0.2316,-0.2412,-0.2474,-0.254,-0.2597,-0.2657,-0.2681,-0.2708,-0.2709,-0.272,-0.2703,-0.2694,-0.2696,-0.2641,-0.2625,-0.266,-0.2547,-0.2542,-0.2469,-0.2483,-0.2334,-0.2193,-0.2488,-0.2487,-0.2487,0,-0.2143,-0.2225,-0.2326,-0.2459,-0.2489,-0.2543,-0.2627,-0.2688,-0.2747,-0.2762,-0.2786,-0.2776,-0.2772,-0.275,-0.2689,-0.2708,-0.2647,-0.2605,-0.2599,-0.2519,-0.2467,-0.2209,-0.2175,-0.248,-0.2481,-0.2481,-0.2482,0,-0.2057,-0.2213,-0.229,-0.2339,-0.2497,-0.2537,-0.2605,-0.2689,-0.2723,-0.2785,-0.2781,-0.2808,-0.2761,-0.2742,-0.264,-0.2665,-0.2546,-0.2568,-0.2448,-0.2438,-0.2285,-0.2262,-0.2541,-0.2541,-0.2542,-0.2542,-0.2542,0,-0.2034,-0.209,-0.2257,-0.2296,-0.2375,-0.2498,-0.2558,-0.2632,-0.2707,-0.2703,-0.2786,-0.2747,-0.2757,-0.2684,-0.2637,-0.2502,-0.2537,-0.2449,-0.2411,-0.2293,-0.2274,-0.2516,-0.2516,-0.2536,-0.2538,-0.2539,-0.254,0,-0.192,-0.2039,-0.212,-0.2282,-0.2335,-0.2374,-0.251,-0.2526,-0.2636,-0.2623,-0.2631,-0.2665,-0.2579,-0.2563,-0.2481,-0.2446,-0.2367,-0.2314,-0.2144,-0.2092,-0.226,-0.2264,-0.2182,-0.2179,-0.2176,-0.2174,-0.2172,0,-0.1882,-0.1916,-0.2062,-0.2084,-0.215,-0.2246,-0.2282,-0.2448,-0.2449,-0.2529,-0.2468,-0.2451,-0.2384,-0.227,-0.2227,-0.2149,-0.2222,-0.1959,-0.2017,-0.2259,-0.223,-0.2238,-0.2245,-0.1799,-0.1794,-0.179,-0.1787,0,-0.1782,-0.1814,-0.1868,-0.1927,-0.1966,-0.2029,-0.2093,-0.2108,-0.224,-0.2254,-0.2223,-0.2212,-0.2139,-0.2012,-0.1952,-0.1891,-0.1981,-0.1876,-0.2157,-0.1937,-0.1893,-0.1867,-0.1887,-0.1751,-0.1755,-0.1757,-0.1759,-0.1761,-0.1665,-0.1662,-0.1715,-0.1752,-0.1787,-0.1789,-0.1794,-0.1847,-0.1875,-0.1886,-0.1939,-0.1893,-0.1894,-0.1754,-0.1656,-0.1604,-0.1749,-0.1686,-0.17,-0.1718,-0.1723,-0.1681,-0.1494,-0.1496,-0.1498,-0.1499,-0.1501,0,-0.1536,-0.1543,-0.1547,-0.1584,-0.154,-0.1628,-0.164,-0.1616,-0.1595,-0.1625,-0.1631,-0.1494,-0.1439,-0.1444,-0.1331,-0.1322,-0.1329,-0.1252,-0.1267,-0.1302,-0.1334,-0.1323,-0.0985,-0.0983,-0.0982,-0.098,0,0,-0.1469,-0.1427,-0.1436,-0.135,-0.1356,-0.1291,-0.1274,-0.1258,-0.1272,-0.1233,-0.1234,-0.1366,-0.1411,-0.1199,-0.1153,-0.1049,-0.1162,-0.0997,-0.1411,-0.1462,-0.1492,-0.1583,-0.1605,0,0,0,0,0]},{"header":{"parameterUnit":"m.s-1","parameterCategory":2,"la1":30.2991,"la2":30.254,"lo1":-89.0895,"lo2":-89.0444,"dy":0.0017,"dx":0.0017,"nx":28,"ny":28,"refTime":"2024-04-05T03:00:00:Z","depth":"2","parameterNumber":3,"parameterNumberName":"V-component_of_CURRENTS"},"data":[0,0,0,0,0,0,0,0,0,0,0,0,0,0,0,0,0,0,0,0,0,0,0,0,0,0,0,0,0,0,0,0,0,0,0,0,0,0,0,0,0,0,0,0,0,0,0,0,0,0,0,0,0,0,0,0,0,0,-0.0214,-0.0214,0,-0.0183,-0.0182,-0.0182,-0.0155,-0.0155,-0.0155,-0.0155,-0.0042,-0.0039,-0.0036,0,0,0,0,0,0,0,0,0,0,0,0,0,-0.0185,-0.0185,-0.0214,-0.0214,-0.0214,-0.0183,-0.0182,-0.0181,-0.0155,-0.0155,-0.0155,-0.0155,-0.0043,-0.004,-0.0036,0,0,0,0,0,0,0,0,0,0,0,0,0,-0.0177,-0.0186,-0.0214,-0.02,-0.0198,-0.0183,-0.0182,-0.0181,-0.0155,-0.0155,-0.0155,-0.0155,-0.0044,-0.004,-0.0036,-0.0006,0,0,-0.0022,-0.002,0,0,0,0,0,0,0,0,-0.0177,-0.0177,-0.0202,-0.0201,-0.0199,-0.0176,-0.0131,-0.012,-0.0155,-0.0168,-0.0155,-0.0155,-0.0082,-0.0074,-0.0064,-0.0001,0.0004,-0.0021,-0.0018,-0.0016,-0.0015,0,0,0,0,0,0,0,-0.0178,-0.0178,-0.0198,-0.0202,-0.02,-0.0172,-0.0172,-0.0128,-0.012,-0.0167,-0.0166,-0.0168,-0.008,-0.0069,-0.0061,0.0006,-0.0021,-0.0017,-0.0014,-0.0013,0.0113,0.0113,0,0,0,0,0,0,-0.0192,-0.0179,-0.0199,-0.0198,-0.0192,-0.0173,-0.0172,-0.0181,-0.0123,-0.0116,-0.0168,-0.0167,-0.0076,-0.0067,-0.0057,-0.0019,-0.0016,-0.0012,-0.001,0.0112,0.0113,0.0114,0,0,0,0,0,0,-0.0192,-0.0195,-0.02,-0.019,-0.0189,-0.0175,-0.0184,-0.018,-0.0172,-0.0125,-0.0116,-0.0165,-0.0076,-0.0063,-0.002,-0.0015,-0.001,-0.0006,0.0111,0.0112,0.0113,0.0057,0,0,0,0,0,0,-0.0191,-0.0195,-0.0207,-0.0191,-0.019,-0.0198,-0.0184,-0.0179,-0.0175,-0.0173,-0.0119,-0.0109,-0.0075,-0.0027,-0.0015,-0.0008,-0.0002,0.0111,0.0112,0.0113,0.0058,0.0056,0.0054,0,0,0,0,0,-0.019,-0.0209,-0.0208,-0.021,-0.0207,-0.0199,-0.0195,-0.0182,-0.0175,-0.0174,-0.0134,-0.011,-0.0011,-0.0023,-0.0009,-0.0001,0.011,0.0112,0.0113,0.0059,0.0056,0.0054,0,0,0,0,0,0,-0.0205,-0.0208,-0.0206,-0.0226,-0.0216,-0.0196,-0.02,-0.0186,-0.0155,-0.0151,-0.0103,-0.0089,-0.0049,-0.0014,-0.0028,0.004,0.0054,0.0058,0.0009,0.0007,0.0004,-0.0013,0.0001,0,0,0,0,0,-0.0215,-0.0231,-0.0221,-0.0238,-0.0237,-0.0218,-0.0213,-0.0201,-0.0174,-0.0162,-0.0123,-0.0077,-0.0032,-0.0007,0.0036,0.0074,0.0105,0.009,0.0088,0.0086,0.0082,0.0134,0.0135,0.0118,0.0118,0.0118,0,0,-0.023,-0.0231,-0.0243,-0.0243,-0.0236,-0.024,-0.0215,-0.0212,-0.0205,-0.0152,-0.0128,-0.0083,-0.0023,0.0016,0.0038,0.0045,0.0107,0.0087,0.0085,0.0082,0.0135,0.0137,0.0138,0.0119,0.0119,0.0118,0,0,-0.0262,-0.0265,-0.0287,-0.0281,-0.0275,-0.026,-0.0262,-0.0239,-0.0217,-0.0187,-0.0145,-0.01,-0.0037,0.0007,0.0038,0.0054,0.0092,0.007,0.0047,0.0097,0.0098,0.01,0.0133,0.0138,0.007,0.007,0.007,0,-0.028,-0.0306,-0.029,-0.0304,-0.0308,-0.0274,-0.0289,-0.026,-0.0223,-0.0199,-0.0187,-0.0087,-0.0041,0.0018,0.002,0.0048,0.0076,0.0047,0.0092,0.0095,0.0097,0.0131,0.0137,0.0067,0.0067,0.0068,0.0068,0,-0.0325,-0.0344,-0.0356,-0.0365,-0.036,-0.0369,-0.0333,-0.0315,-0.0285,-0.0247,-0.0185,-0.0118,-0.0059,-0.0033,-0.0003,0.0044,0.0057,0.0079,0.0091,0.0095,0.0131,0.0139,0.0064,0.0064,0.0065,0.0066,0,0,-0.0376,-0.0388,-0.0393,-0.0411,-0.0394,-0.04,-0.0378,-0.0348,-0.0335,-0.0271,-0.0237,-0.0155,-0.0111,-0.0073,-0.0019,0.0026,0.0065,0.0053,0.0057,0.0073,0.0164,0.0178,0.0188,0.0093,0.0094,0.0095,0.0177,0,-0.042,-0.0467,-0.0448,-0.0488,-0.0514,-0.047,-0.0456,-0.0416,-0.0368,-0.0321,-0.0223,-0.0168,-0.0125,-0.0095,-0.0043,0.0045,0.0084,0.004,0.0169,0.0173,0.0175,0.0197,0.0175,0.0247,0.0185,0.0186,0.0187,0,-0.0474,-0.0502,-0.0548,-0.0561,-0.0565,-0.057,-0.055,-0.0527,-0.0437,-0.039,-0.0309,-0.0233,-0.0138,-0.0109,0.0034,0.0003,0.0071,0.0134,0.014,0.0178,0.0202,0.0238,0.0264,0.02,0.0199,0.0198,0.0198,0,-0.054,-0.0571,-0.0613,-0.0621,-0.0623,-0.0624,-0.0612,-0.0551,-0.0522,-0.0425,-0.0387,-0.0267,-0.0194,-0.009,0.0043,0.004,0.0193,0.0209,0.0284,0.0285,0.0305,0.0306,0.0295,0.0294,0.0294,0.0294,0.0294,0,-0.0606,-0.0641,-0.0651,-0.0681,-0.0722,-0.0689,-0.0702,-0.0661,-0.0586,-0.0546,-0.0424,-0.0362,-0.0186,-0.0072,0.0034,0.0186,0.019,0.0284,0.0313,0.0285,0.0283,0.0275,0.0271,0.0297,0.0296,0.0296,0.0295,0,-0.0675,-0.068,-0.0737,-0.0754,-0.0759,-0.0787,-0.0767,-0.0762,-0.0681,-0.0622,-0.0585,-0.0417,-0.026,-0.0098,0.0085,0.0178,0.0315,0.036,0.0307,0.0329,0.0373,0.0366,0.0458,0.046,0.0461,0.0462,0.0463,0,-0.0715,-0.0752,-0.0801,-0.0831,-0.084,-0.0868,-0.0876,-0.0816,-0.0786,-0.0656,-0.0613,-0.045,-0.0322,-0.0046,0.0151,0.0346,0.0345,0.0427,0.0421,0.0373,0.0393,0.0384,0.0375,0.0424,0.0424,0.0424,0.0425,0,-0.0788,-0.0801,-0.0845,-0.0909,-0.0938,-0.0968,-0.0958,-0.0946,-0.0852,-0.0789,-0.066,-0.0553,-0.027,-0.0033,0.0223,0.0329,0.0397,0.044,0.0424,0.038,0.0346,0.0363,0.0355,0.0428,0.0427,0.0427,0.0427,0.0427,-0.0828,-0.0878,-0.0924,-0.0981,-0.1016,-0.1031,-0.1043,-0.1001,-0.0953,-0.0823,-0.0711,-0.0534,-0.0282,0.0085,0.0278,0.0451,0.0445,0.0489,0.0486,0.0483,0.0459,0.0428,0.052,0.052,0.052,0.052,0.0521,0,-0.0874,-0.0921,-0.0984,-0.1044,-0.1083,-0.1082,-0.1067,-0.1045,-0.0985,-0.0852,-0.0723,-0.0461,-0.0181,0.0065,0.0349,0.052,0.0507,0.0538,0.0495,0.0491,0.0488,0.0462,0.0526,0.0526,0.0527,0.0527,0,0,-0.0897,-0.097,-0.1005,-0.1077,-0.1112,-0.1133,-0.1121,-0.107,-0.0967,-0.0841,-0.0706,-0.0495,-0.0182,0.0024,0.0252,0.0399,0.0395,0.0404,0.0381,0.0301,0.0295,0.0442,0.0396,0,0,0,0,0]}],[{"header":{"parameterUnit":"m.s-1","parameterCategory":2,"la1":30.2991,"la2":30.254,"lo1":-89.0895,"lo2":-89.0444,"dy":0.0017,"dx":0.0017,"nx":28,"ny":28,"refTime":"2024-04-05T03:00:00:Z","depth":"4","parameterNumber":2,"parameterNumberName":"U-component_of_CURRENTS"},"data":[0,0,0,0,0,0,0,0,0,0,0,0,0,0,0,0,0,0,0,0,0,0,0,0,0,0,0,0,0,0,0,0,0,0,0,0,0,0,0,0,0,0,0,0,0,0,0,0,0,0,0,0,0,0,0,0,0,0,-0.0862,-0.0859,0,-0.0726,-0.0726,-0.0727,-0.0761,-0.0761,-0.0762,-0.0762,-0.0877,-0.088,-0.0883,0,0,0,0,0,0,0,0,0,0,0,0,0,-0.1045,-0.1044,-0.0863,-0.0858,-0.0854,-0.0726,-0.0726,-0.0727,-0.0761,-0.0761,-0.0762,-0.0762,-0.0876,-0.0879,-0.0883,0,0,0,0,0,0,0,0,0,0,0,0,0,-0.0969,-0.1044,-0.0863,-0.0836,-0.083,-0.0725,-0.0726,-0.0727,-0.0761,-0.0761,-0.0762,-0.0762,-0.0875,-0.0879,-0.0883,-0.0904,0,0,-0.0897,-0.0898,0,0,0,0,0,0,0,0,-0.0973,-0.0966,-0.0844,-0.0837,-0.083,-0.0737,-0.0831,-0.0789,-0.0761,-0.0816,-0.0762,-0.0762,-0.0836,-0.0843,-0.0852,-0.0909,-0.0914,-0.0897,-0.09,-0.0901,-0.0903,0,0,0,0,0,0,0,-0.0979,-0.097,-0.0836,-0.0839,-0.083,-0.079,-0.0785,-0.0824,-0.0852,-0.0811,-0.0807,-0.0748,-0.0838,-0.0847,-0.0855,-0.0916,-0.0897,-0.0901,-0.0903,-0.0905,-0.1146,-0.115,0,0,0,0,0,0,-0.0946,-0.0976,-0.084,-0.0829,-0.0873,-0.0786,-0.078,-0.0789,-0.0845,-0.0844,-0.0748,-0.075,-0.084,-0.085,-0.0859,-0.1063,-0.0901,-0.0905,-0.0908,-0.1142,-0.1147,-0.1151,0,0,0,0,0,0,-0.0952,-0.0938,-0.0845,-0.0874,-0.0855,-0.078,-0.0791,-0.0785,-0.0807,-0.0789,-0.0799,-0.0773,-0.0841,-0.0853,-0.0951,-0.1061,-0.0907,-0.0911,-0.1138,-0.1144,-0.1149,-0.1357,0,0,0,0,0,0,-0.096,-0.0944,-0.0961,-0.0874,-0.0851,-0.0801,-0.0787,-0.0781,-0.0756,-0.0759,-0.0814,-0.0823,-0.0842,-0.0944,-0.0955,-0.1064,-0.0915,-0.1133,-0.114,-0.1147,-0.1345,-0.1369,-0.139,0,0,0,0,0,-0.0968,-0.0981,-0.0965,-0.0946,-0.0874,-0.0799,-0.079,-0.0752,-0.0757,-0.0777,-0.0841,-0.0823,-0.0997,-0.0951,-0.0963,-0.1075,-0.1129,-0.1138,-0.1146,-0.1335,-0.1364,-0.1389,0,0,0,0,0,0,-0.1064,-0.098,-0.0962,-0.095,-0.0881,-0.0795,-0.0797,-0.0762,-0.0824,-0.0824,-0.087,-0.0886,-0.1025,-0.1003,-0.0952,-0.1162,-0.1061,-0.1072,-0.12,-0.1228,-0.1249,-0.1208,-0.0918,0,0,0,0,0,-0.1086,-0.1086,-0.0985,-0.0974,-0.0957,-0.0887,-0.0856,-0.0795,-0.0801,-0.0826,-0.0904,-0.097,-0.1064,-0.1105,-0.1172,-0.127,-0.1203,-0.1347,-0.137,-0.1389,-0.1362,-0.1381,-0.1402,-0.1179,-0.1179,-0.1179,0,0,-0.11,-0.1059,-0.1051,-0.0993,-0.0961,-0.0934,-0.0882,-0.0808,-0.0831,-0.083,-0.0986,-0.1056,-0.1108,-0.1252,-0.1308,-0.125,-0.1418,-0.14,-0.1416,-0.1377,-0.1392,-0.1413,-0.1432,-0.1185,-0.1184,-0.1183,0,0,-0.1122,-0.1126,-0.1131,-0.1099,-0.0998,-0.0947,-0.0931,-0.0885,-0.0938,-0.1027,-0.1074,-0.1191,-0.1335,-0.1405,-0.1452,-0.1617,-0.1543,-0.166,-0.1736,-0.1759,-0.1776,-0.1791,-0.1729,-0.1736,-0.1661,-0.1661,-0.1661,0,-0.1155,-0.1148,-0.1113,-0.1115,-0.1086,-0.0973,-0.096,-0.0989,-0.0994,-0.105,-0.11,-0.1325,-0.1408,-0.1541,-0.1654,-0.167,-0.1636,-0.1641,-0.1786,-0.1799,-0.1811,-0.1743,-0.1749,-0.1672,-0.1671,-0.167,-0.1669,0,-0.116,-0.1175,-0.1183,-0.1171,-0.1146,-0.1097,-0.1082,-0.113,-0.1183,-0.1194,-0.1371,-0.1496,-0.163,-0.17,-0.1761,-0.1899,-0.1834,-0.1823,-0.1715,-0.1845,-0.1766,-0.1768,-0.1688,-0.1684,-0.1681,-0.1678,0,0,-0.1199,-0.1191,-0.1203,-0.121,-0.1161,-0.1124,-0.1206,-0.122,-0.1272,-0.1374,-0.1505,-0.1729,-0.1782,-0.1838,-0.192,-0.1954,-0.2076,-0.1959,-0.1955,-0.1888,-0.2074,-0.1954,-0.1942,-0.2109,-0.2111,-0.2112,-0.1984,0,-0.1223,-0.1235,-0.1231,-0.1245,-0.1244,-0.1226,-0.1332,-0.1329,-0.1387,-0.1511,-0.1606,-0.1761,-0.1838,-0.1948,-0.2018,-0.2064,-0.2091,-0.2106,-0.1962,-0.1955,-0.1828,-0.1946,-0.2118,-0.1984,-0.1984,-0.1985,-0.1985,0,-0.1238,-0.1238,-0.1265,-0.13,-0.1313,-0.1326,-0.1399,-0.1461,-0.156,-0.1645,-0.1747,-0.1818,-0.1964,-0.2012,-0.2087,-0.2102,-0.2132,-0.2113,-0.2107,-0.1911,-0.184,-0.1828,-0.1986,-0.1986,-0.1986,-0.1986,-0.1986,0,-0.1248,-0.1273,-0.1295,-0.1302,-0.1329,-0.1391,-0.1424,-0.1498,-0.1563,-0.1708,-0.1749,-0.1889,-0.1983,-0.2036,-0.2098,-0.2119,-0.2095,-0.2103,-0.197,-0.1956,-0.2004,-0.1989,-0.213,-0.2131,-0.2131,-0.2131,-0.2132,0,-0.1263,-0.1283,-0.1309,-0.132,-0.1375,-0.1417,-0.1487,-0.1566,-0.1661,-0.17,-0.1834,-0.1876,-0.2008,-0.2022,-0.2074,-0.2017,-0.2086,-0.1975,-0.1935,-0.2093,-0.2091,-0.2003,-0.199,-0.2126,-0.2127,-0.2128,-0.2129,0,-0.1252,-0.1278,-0.1302,-0.1357,-0.1375,-0.1424,-0.1484,-0.1524,-0.1638,-0.1693,-0.1751,-0.1866,-0.1895,-0.1926,-0.197,-0.1947,-0.1916,-0.1877,-0.1986,-0.1954,-0.1753,-0.1752,-0.1693,-0.1688,-0.1684,-0.1681,-0.1678,0,-0.1226,-0.1242,-0.1306,-0.1317,-0.1341,-0.1393,-0.1425,-0.1526,-0.1545,-0.1652,-0.1674,-0.1731,-0.1798,-0.1704,-0.1794,-0.1774,-0.1787,-0.1727,-0.1811,-0.175,-0.1717,-0.1724,-0.1729,-0.1671,-0.167,-0.1669,-0.1668,0,-0.1161,-0.1219,-0.1233,-0.1268,-0.1297,-0.1308,-0.1357,-0.1359,-0.1469,-0.1552,-0.1568,-0.1586,-0.1585,-0.1623,-0.1609,-0.1616,-0.175,-0.1685,-0.1694,-0.1772,-0.1723,-0.1696,-0.1706,-0.1654,-0.1656,-0.1657,-0.1658,0,-0.1107,-0.1115,-0.1159,-0.1175,-0.1215,-0.1218,-0.1252,-0.1262,-0.13,-0.1422,-0.1413,-0.1486,-0.1561,-0.1535,-0.1535,-0.1521,-0.1521,-0.149,-0.151,-0.1526,-0.1544,-0.1461,-0.1274,0,0,0,0,0,-0.1023,-0.1021,-0.1041,-0.106,-0.1109,-0.1125,-0.1193,-0.123,-0.131,-0.1288,-0.1353,-0.1363,-0.1369,-0.1408,-0.1363,-0.1462,-0.1524,-0.1404,-0.1499,-0.1575,-0.1591,-0.1634,0,0,0,0,0,0,-0.0965,-0.0984,-0.0998,-0.0953,-0.0949,-0.0976,-0.102,-0.1084,-0.1082,-0.1182,-0.1197,-0.1269,-0.1299,-0.1368,-0.1328,-0.1339,-0.1371,-0.1451,-0.1447,-0.1565,-0.158,-0.1593,-0.1643,0,0,0,0,0]},{"header":{"parameterUnit":"m.s-1","parameterCategory":2,"la1":30.2991,"la2":30.254,"lo1":-89.0895,"lo2":-89.0444,"dy":0.0017,"dx":0.0017,"nx":28,"ny":28,"refTime":"2024-04-05T03:00:00:Z","depth":"4","parameterNumber":3,"parameterNumberName":"V-component_of_CURRENTS"},"data":[0,0,0,0,0,0,0,0,0,0,0,0,0,0,0,0,0,0,0,0,0,0,0,0,0,0,0,0,0,0,0,0,0,0,0,0,0,0,0,0,0,0,0,0,0,0,0,0,0,0,0,0,0,0,0,0,0,0,-0.0058,-0.0058,0,-0.0053,-0.0053,-0.0052,-0.0027,-0.0026,-0.0026,-0.0025,-0.0011,-0.0011,-0.0011,0,0,0,0,0,0,0,0,0,0,0,0,0,-0.0058,-0.0058,-0.0058,-0.0058,-0.0058,-0.0053,-0.0053,-0.0052,-0.0027,-0.0026,-0.0026,-0.0025,-0.0011,-0.0011,-0.0011,0,0,0,0,0,0,0,0,0,0,0,0,0,-0.0055,-0.0058,-0.0058,-0.0046,-0.0045,-0.0053,-0.0053,-0.0052,-0.0027,-0.0026,-0.0026,-0.0025,-0.0011,-0.0011,-0.0011,-0.0027,0,0,-0.0012,-0.0012,0,0,0,0,0,0,0,0,-0.0055,-0.0054,-0.0048,-0.0047,-0.0045,-0.0041,-0.0047,-0.0044,-0.0027,-0.0033,-0.0025,-0.0025,-0.0022,-0.0021,-0.002,-0.0027,-0.0026,-0.0012,-0.0012,-0.0012,-0.0012,0,0,0,0,0,0,0,-0.0055,-0.0055,-0.0055,-0.0048,-0.0046,-0.0044,-0.0043,-0.0046,-0.003,-0.0032,-0.0031,-0.0032,-0.0021,-0.002,-0.002,-0.0026,-0.0012,-0.0012,-0.0012,-0.0012,0.0008,0.0009,0,0,0,0,0,0,-0.0058,-0.0055,-0.0055,-0.0055,-0.005,-0.0045,-0.0043,-0.0042,-0.0031,-0.0028,-0.0033,-0.0031,-0.002,-0.0019,-0.0019,0.0012,-0.0012,-0.0012,-0.0012,0.0008,0.0008,0.0009,0,0,0,0,0,0,-0.0058,-0.0058,-0.0055,-0.0056,-0.0055,-0.0046,-0.0045,-0.0042,-0.0037,-0.0031,-0.0028,-0.0029,-0.0019,-0.0019,-0.0019,0.0011,-0.0012,-0.0012,0.0007,0.0008,0.0009,0.0043,0,0,0,0,0,0,-0.0058,-0.0058,-0.0067,-0.0056,-0.0055,-0.007,-0.0046,-0.0043,-0.004,-0.0037,-0.0027,-0.0025,-0.0019,-0.0019,-0.0019,0.0011,-0.0012,0.0006,0.0007,0.0008,0.0041,0.0045,0.0048,0,0,0,0,0,-0.0058,-0.0072,-0.0067,-0.0067,-0.0064,-0.0071,-0.0071,-0.0061,-0.004,-0.005,-0.0033,-0.0025,-0.0011,-0.0019,-0.002,0.0011,0.0005,0.0007,0.0008,0.0039,0.0044,0.0048,0,0,0,0,0,0,-0.0081,-0.0071,-0.0065,-0.0076,-0.0078,-0.0067,-0.0077,-0.0062,-0.0055,-0.0047,-0.0031,-0.003,-0.0004,-0.0015,-0.0024,0.002,0.0004,0.0005,0.0028,0.0032,0.0036,-0.0,-0.0013,0,0,0,0,0,-0.009,-0.0096,-0.0088,-0.01,-0.01,-0.0086,-0.0088,-0.0077,-0.0067,-0.0062,-0.0053,-0.0034,-0.0,-0.0001,0.0017,0.0018,0.0011,0.0041,0.0045,0.0048,0.0018,0.0031,0.0032,0.0014,0.0014,0.0014,0,0,-0.0105,-0.01,-0.0105,-0.0106,-0.0103,-0.0115,-0.0085,-0.0087,-0.0093,-0.0063,-0.0068,-0.002,0.0006,0.003,0.0039,0.0021,0.0058,0.005,0.0053,0.002,0.0032,0.0034,0.0035,0.0014,0.0014,0.0014,0,0,-0.0135,-0.013,-0.0143,-0.0145,-0.0142,-0.0137,-0.0137,-0.0124,-0.0114,-0.0106,-0.0063,-0.0017,0.0004,0.0034,0.0055,0.0077,0.0089,0.0105,0.0079,0.0093,0.0094,0.0095,0.0123,0.0126,0.0093,0.0093,0.0093,0,-0.0155,-0.0168,-0.0151,-0.0164,-0.0174,-0.0148,-0.0168,-0.0159,-0.0147,-0.0145,-0.0109,-0.0043,0.0004,0.0031,0.0073,0.0086,0.0099,0.0066,0.0097,0.0097,0.0098,0.0126,0.0129,0.0095,0.0094,0.0094,0.0094,0,-0.0191,-0.0205,-0.0214,-0.0222,-0.0231,-0.0245,-0.0231,-0.0231,-0.0199,-0.0184,-0.0144,-0.0076,-0.0039,0.0012,0.0064,0.0099,0.0113,0.0114,0.0085,0.0101,0.0131,0.0133,0.0097,0.0096,0.0096,0.0095,0,0,-0.0233,-0.0238,-0.0245,-0.0259,-0.0261,-0.0275,-0.0284,-0.0292,-0.0298,-0.0254,-0.025,-0.0141,-0.0091,-0.0064,0.001,0.0039,0.0112,0.0089,0.0089,0.0114,0.0158,0.0167,0.0171,0.0126,0.0126,0.0126,0.0191,0,-0.0272,-0.0306,-0.0298,-0.0344,-0.0364,-0.0349,-0.0369,-0.0367,-0.0338,-0.0328,-0.0253,-0.0213,-0.0127,-0.0074,-0.0028,0.0083,0.0113,0.0094,0.0138,0.0139,0.0142,0.0171,0.0125,0.0192,0.0193,0.0193,0.0193,0,-0.0317,-0.0333,-0.0377,-0.0406,-0.0415,-0.0441,-0.0464,-0.0471,-0.045,-0.0415,-0.0371,-0.0309,-0.0226,-0.0156,-0.0026,-0.0036,0.0061,0.013,0.0134,0.0117,0.015,0.0163,0.0197,0.0197,0.0197,0.0196,0.0196,0,-0.0366,-0.0396,-0.0434,-0.0444,-0.0469,-0.0492,-0.0508,-0.0506,-0.0509,-0.0472,-0.0448,-0.0378,-0.0301,-0.0212,-0.0026,-0.0021,0.0109,0.0121,0.0198,0.02,0.0156,0.0154,0.0179,0.0179,0.0179,0.0179,0.0178,0,-0.0418,-0.0452,-0.0462,-0.0489,-0.0542,-0.054,-0.0587,-0.0582,-0.0567,-0.0561,-0.0492,-0.0448,-0.0305,-0.0201,-0.0066,0.0084,0.0074,0.0187,0.021,0.0176,0.0175,0.016,0.0157,0.0181,0.0181,0.018,0.018,0,-0.0472,-0.0475,-0.0528,-0.056,-0.057,-0.0612,-0.0638,-0.0661,-0.0635,-0.0615,-0.06,-0.0486,-0.0343,-0.0215,-0.0036,0.0047,0.0171,0.0222,0.0187,0.0208,0.026,0.0258,0.0287,0.0288,0.0289,0.0289,0.029,0,-0.0496,-0.0527,-0.0583,-0.0614,-0.0634,-0.0679,-0.0707,-0.0697,-0.0692,-0.0625,-0.0602,-0.048,-0.0386,-0.0148,-0.0006,0.0179,0.0215,0.0259,0.0247,0.0248,0.0268,0.0265,0.0262,0.0291,0.0291,0.0291,0.0291,0,-0.0544,-0.0572,-0.0614,-0.0676,-0.0718,-0.0756,-0.0774,-0.0768,-0.0728,-0.071,-0.0586,-0.0467,-0.0306,-0.013,0.0018,0.0155,0.0211,0.0266,0.0265,0.0254,0.0252,0.0271,0.0267,0.0293,0.0293,0.0293,0.0292,0,-0.0575,-0.062,-0.0672,-0.0725,-0.078,-0.08,-0.0812,-0.077,-0.0752,-0.0652,-0.0604,-0.0441,-0.0336,-0.0139,0.0001,0.0127,0.0153,0.0177,0.0181,0.018,0.0131,0.0111,0.0122,0,0,0,0,0,-0.059,-0.0638,-0.0704,-0.0761,-0.0819,-0.0836,-0.0835,-0.0825,-0.077,-0.0686,-0.0639,-0.0485,-0.0266,-0.0166,-0.0039,-0.0004,0.0158,0.0146,0.0183,0.0304,0.0302,0.0262,0,0,0,0,0,0,-0.06,-0.0669,-0.0705,-0.0769,-0.0808,-0.0853,-0.0851,-0.0816,-0.0746,-0.0677,-0.0552,-0.0478,-0.026,-0.0342,-0.0045,-0.0006,0.003,0.0254,0.0256,0.0306,0.0303,0.0302,0.026,0,0,0,0,0]}]]